Regional Weather Roundup
Issued by NWS Upton, NY

Current Version | Previous Version | Text Only | Print | Product List | Glossary On
Versions: 1 2 3 4 5 6 7 8 9 10 11 12 13 14 15 16 17 18 19 20 21 22 23 24 25 26 27 28 29 30 31 32 33 34 35 36 37 38 39 40 41 42 43 44 45 46 47 48 49 50
319 ASUS41 KOKX 181708 RWROKX REGIONAL WEATHER ROUNDUP NATIONAL WEATHER SERVICE NEW YORK NY 100 PM EDT FRI AUG 18 2017 NOTE: "FAIR" INDICATES FEW OR NO CLOUDS BELOW 12,000 FEET WITH NO SIGNIFICANT WEATHER AND/OR OBSTRUCTIONS TO VISIBILITY. NYZ071-072-176-178-NJZ106-104-181800- NEW YORK CITY METRO AREA CITY SKY/WX TMP DP RH WIND PRES REMARKS Central Park CLOUDY 79 77 94 MISG 29.88F FOG Bronx Bot Gard N/A 81 73 78 W12 29.85F LaGuardia APRT CLOUDY 82 76 81 SW15 29.84F Kennedy INTL CLOUDY 78 77 96 S18 29.87S Breezy Point N/A 75 N/A N/A S13 N/A Newark/Liberty CLOUDY 80 76 87 S12 29.85S Teterboro CLOUDY 81 76 84 S7 29.83F $$ NYZ177-179-078>081-181800- LONG ISLAND NEW YORK CITY SKY/WX TMP DP RH WIND PRES REMARKS Jones Beach N/A 77 N/A N/A SW5G10 N/A Matinecock PT N/A 79 N/A N/A SW7 N/A Farmingdale CLOUDY 79 75 87 S15 29.87F MacArthur/ISP CLOUDY 78 76 93 S15G22 29.87F Shirley CLOUDY 78 77 96 S12 29.89F Mt Sinai Harb N/A 77 N/A N/A S12G17 N/A Westhampton CLOUDY 75 72 90 S9G20 29.90F East Hampton CLOUDY 72 71 97 S7 29.89F THUNDER FOG Montauk N/A 73 72 96 S8 29.92F $$ NYZ052-065-067-181800- HUDSON VALLEY CITY SKY/WX TMP DP RH WIND PRES REMARKS White Plains CLOUDY 77 75 93 S6 29.86F FOG Larchmont Harb N/A 75 N/A N/A S1 N/A Croton On Huds N/A 77 N/A N/A S5 N/A Newburgh CLOUDY 77 75 94 VRB6 29.86 Montgomery CLOUDY 78 73 84 S8 29.84F Poughkeepsie CLOUDY 78 71 79 S6 29.83F Albany LGT RAIN 74 71 91 S14G20 29.82F FOG $$ NJZ001-105-106-008-010-013-015-019>022-104-181800- NEW JERSEY CITY SKY/WX TMP DP RH WIND PRES REMARKS Newark/Liberty CLOUDY 80 76 87 S12 29.85S Teterboro CLOUDY 81 76 84 S7 29.83F Caldwell CLOUDY 78 77 96 CALM 29.85F Somerville CLOUDY 80 76 87 S5 29.83F Linden CLOUDY 80 75 85 S5 29.85F Perth Amboy N/A 79 N/A N/A SW10 N/A Sussex CLOUDY 80 74 81 SW7 29.84F Andover N/A 78 73 84 VRB5 29.86F Trenton CLOUDY 80 77 90 S8 29.85F FOG Millville CLOUDY 87 80 79 VRB7 29.85F HX 103 Atlantic City CLOUDY 85 78 80 S10 29.86F HX 96 Wrightstown CLOUDY 79 77 94 S7 29.83F Toms River CLOUDY 80 77 90 S7 29.87F Belmar CLOUDY 80 77 90 SW10 29.87F $$ PAZ047>061-062-071-181800- EASTERN PENNSYLVANIA CITY SKY/WX TMP DP RH WIND PRES REMARKS Philadelphia CLOUDY 81 76 84 SW7 29.85F Allentown CLOUDY 83 73 72 S10 29.84F Scranton LGT RAIN 80 73 79 S7 29.84S $$ CTZ002-004>006-009-010-012-RIZ004-006-007-MAZ004-011-015-181800- SOUTHERN NEW ENGLAND IN CT CITY SKY/WX TMP DP RH WIND PRES REMARKS Bradley INTL CLOUDY 80 71 74 S13 29.85F Hartford CLOUDY 80 72 76 S9 29.85F Danbury CLOUDY 77 74 90 SW5 29.87F FOG Wtrbury/Oxford LGT RAIN 74 73 97 S6 29.89F VSB 1 Norwalk Harbor N/A 75 N/A N/A SW3 N/A Bridgeport CLOUDY 78 76 93 S8 29.86S Meriden CLOUDY 76 73 91 S10G18 29.86F New Haven CLOUDY 77 75 93 S10 29.87F Chester NOT AVBL Groton CLOUDY 72 71 97 S10 29.89F FOG Wilimantic CLOUDY 78 71 79 S14 29.89F IN RI CITY SKY/WX TMP DP RH WIND PRES REMARKS Providence CLOUDY 78 72 81 S15G23 29.91F Block Island RAIN 72 71 97 MISG N/A FOG Westerly LGT RAIN 73 72 96 S10 29.91F FOG IN MA CITY SKY/WX TMP DP RH WIND PRES REMARKS Boston NOT AVBL Worcester CLOUDY 76 66 71 S10G24 29.90F Westfield CLOUDY 78 72 81 S8 29.85F Provincetown CLOUDY 75 70 84 S12G20 29.94S Nantucket LGT RAIN 70 70 100 S13 29.97F FOG $$ ANZ330-335-338-340-345-350-353-355-181800- COASTAL MARINE OBSERVATIONS STATION/POSITION TIME SKY/WX TEMP WIND PRES VSBY WAVE AIR SEA DIR/SP/G HT/PER (UTC) (F) (DEG/KT/KT) (MB) (MI) (FT/S) NY HARB ENTRANCE 1550 76 75 210/ 14/ 17 1011.1 4/ 5 GREAT SOUTH BAY 1630 76 78 220/ 14/ 16 N/A 23 SSW MONTAUK P 1550 73 71 1013.4 3/ 4 15 E BARNEGAT LI 1630 76 N/A 4/ 5 HUDSON CANYON 1550 77 75 180/ 16/ 19 1012.9 3/ 4 KINGS POINT 1630 78 74 210/ 6/ 10 1010.8 EXECUTION ROCKS NOT AVBL WESTERN LI SOUND NOT AVBL CENTRAL LI SOUND NOT AVBL EASTERN LI SOUND NOT AVBL ROBBINS REEF 1642 200/ 14/ 19 1011.3 $$ >>>>>>>>>>>>>>>>>>>>>>>>>>>> KEY <<<<<<<<<<<<<<<<<<<<<<<<<<< > < > SKY/WX - Sky Condition/Present Weather < > TMP - Temperature in Fahrenheit < > DP - Dew Point in Fahrenheit < > RH - Relative Humidity in Percent < > WIND - Direction (from) and Speed in MPH < > PRES - Mean Sea Level Pressure (inches of Hg) < > WCI - Wind Chill Index < > VSB - VISIBILITY IN MILES < > HX - HEAT INDEX < > TC - TEMPERATURE IN CELSIUS < > VRB - VARIABLE WIND DIRECTION < > < >>>>>>>>>>>>>>>>>>>>>>>>>>>> KEY <<<<<<<<<<<<<<<<<<<<<<<<<<<

USA.gov is the U.S. government's official web portal to all federal, state and local government web resources and services.